Location: Unspecified
(35.7250°N, 0.0000°E)
Time: 16:56:55
(UTC+00:00)

Explorer 7 - Pass Details

Date: 23 June 2019
Orbit: 485 x 680 km, 50.3° (Epoch: 16 August)

Event Time Altitude Azimuth Distance (km) Brightness Sun altitude
Rises 08:42:40 0° 256° (WSW) 2,717 10.0 45.4°
Reaches altitude 10° 08:45:01 10° 266° (W) 1,859 9.2 45.9°
Maximum altitude 08:48:52 33° 331° (NNW) 1,009 8.3 46.7°
Drops below altitude 10° 08:52:58 10° 36° (NE) 1,980 10.1 47.5°
Sets 08:55:33 0° 46° (NE) 2,923 10.9 48.0°
